GEFSNE_500_meanwind_150.txt.gz
Wind_Speed
49 50 50 52 53 54 54 55 55 55 54 56 57 58 58 59 59 60 61 61 62 63 64 65 66 67 68 68 69 70 71 73 73 74 74 75 75 75
50 51 52 53 54 55 55 56 57 58 57 58 59 60 61 61 62 63 64 64 65 66 67 68 68 69 70 71 72 73 73 73 73 73 73 73 74 74
51 52 53 54 55 55 56 57 58 59 60 59 61 62 63 64 65 65 66 66 67 68 69 69 70 71 72 73 74 74 73 72 71 71 72 72 72 72
52 52 53 54 55 56 58 59 60 61 62 62 62 63 64 65 66 66 67 68 68 70 71 71 72 73 73 73 72 71 71 70 70 70 69 69 69 69
52 53 54 55 57 58 59 60 62 63 64 65 64 64 64 66 66 67 68 69 70 72 72 72 72 72 72 71 70 70 69 68 67 66 65 65 64 63
53 54 56 57 58 60 61 62 63 64 65 66 65 65 65 66 67 68 68 69 70 71 71 71 71 70 70 69 68 67 65 63 61 60 59 58 57 56
54 56 57 58 59 61 62 63 64 65 66 66 66 66 66 66 67 68 68 69 69 69 69 69 69 68 66 65 62 59 57 55 54 53 52 52 51 50
55 56 57 59 60 61 62 64 65 66 66 66 66 66 66 66 67 68 69 68 67 66 67 66 65 63 61 58 55 53 52 50 49 48 47 45 44 43
56 57 58 59 61 62 64 65 66 66 67 67 66 65 66 67 68 68 68 67 65 64 64 61 60 59 56 54 52 50 48 47 45 44 41 40 38 36
57 58 59 61 62 64 65 65 65 65 66 66 66 66 67 68 68 67 66 65 63 62 62 59 56 55 53 51 49 47 45 43 41 38 36 35 33 32
58 59 61 62 64 65 66 65 65 65 65 65 66 66 67 67 67 66 65 63 61 60 59 57 54 51 48 47 45 43 41 38 36 35 33 32 31 30
60 61 62 64 65 65 66 65 65 65 65 65 66 66 65 65 66 65 63 61 60 58 56 54 50 47 43 41 40 39 37 35 33 31 30 29 28 27
61 62 63 65 65 65 65 65 65 66 65 65 65 64 64 64 63 62 60 59 58 56 53 49 45 42 38 34 34 34 33 32 30 28 26 25 25 25
62 63 65 65 65 65 65 66 66 66 66 65 63 63 62 61 60 58 58 57 55 53 49 44 40 37 34 31 30 31 31 29 26 25 23 22 22 22
63 65 65 65 64 64 65 65 65 65 64 63 62 60 59 58 56 56 55 53 51 47 43 39 36 33 31 30 28 28 27 25 24 22 21 20 20 19
64 64 64 64 64 64 64 64 63 63 61 60 58 57 56 55 53 52 50 47 44 41 38 35 33 31 29 28 26 24 23 22 21 19 19 18 17 17
64 63 63 63 62 63 62 62 61 59 58 57 56 55 53 51 49 46 43 40 38 36 34 32 30 28 27 25 22 21 19 18 18 17 16 16 15 14
63 63 62 62 62 61 60 59 58 56 56 55 53 51 48 45 42 40 38 36 34 33 31 28 27 25 23 22 20 18 16 15 15 15 14 13 12 11
62 62 61 61 60 59 58 57 55 54 53 51 48 46 43 41 39 37 35 33 31 29 27 25 24 22 21 19 17 15 14 13 13 13 12 10 9 9
61 61 60 60 59 57 56 54 52 50 48 46 44 41 39 38 37 35 33 31 28 27 25 23 21 20 18 16 14 13 13 12 12 11 10 9 8 7
60 59 59 58 57 55 53 50 48 46 44 42 40 38 37 36 35 33 30 28 26 25 22 20 19 17 15 14 12 12 12 11 10 9 9 8 6 6
58 58 58 57 54 51 49 47 45 43 41 39 37 36 35 34 32 30 28 26 24 22 20 18 16 15 13 12 12 11 10 10 9 8 8 7 6 5
58 57 56 53 51 48 46 44 42 40 38 36 35 34 33 32 30 28 26 24 22 20 18 16 15 13 12 11 11 10 9 9 8 7 6 6 6 5

GEFSNE_500_meanwind_156.txt.gz
Wind_Speed
44 45 46 47 47 48 49 50 51 51 50 50 52 53 54 56 57 58 59 59 60 61 62 62 62 62 63 63 62 62 63 64 64 65 66 67 67 68
45 47 47 48 49 49 50 51 52 53 52 52 54 55 57 58 59 61 62 63 63 64 64 64 64 64 64 63 64 64 64 65 66 67 67 68 69 69
46 48 49 49 50 50 51 53 54 55 55 55 57 58 59 60 62 63 64 65 66 66 66 65 65 65 65 65 65 65 66 67 67 68 68 68 69 69
48 49 49 50 51 52 53 54 55 56 57 57 58 60 61 62 64 65 66 67 67 67 66 66 66 65 65 65 65 65 66 66 66 66 66 66 66 66
49 49 50 51 52 53 55 56 57 58 59 60 60 62 63 65 66 67 68 68 67 67 66 65 65 65 64 64 64 65 65 65 65 64 64 64 63 62
49 50 51 52 54 55 56 57 58 59 60 61 62 64 65 66 68 68 68 68 67 66 65 64 64 64 64 64 64 65 65 64 63 62 61 60 59 58
50 51 53 54 55 56 56 57 59 60 61 63 64 65 66 68 69 69 69 67 66 65 64 64 64 64 64 64 64 64 63 62 60 58 57 56 55 53
52 53 54 54 55 56 57 59 60 61 63 64 65 67 68 69 69 68 67 66 64 64 64 63 64 63 63 63 63 62 60 58 56 54 53 52 51 50
53 54 55 55 56 57 58 60 61 62 64 65 67 67 68 68 68 66 65 64 63 63 63 62 61 61 61 61 60 58 55 53 52 50 49 48 47 46
54 55 56 57 58 59 60 61 62 63 65 66 67 67 67 66 66 65 64 63 62 61 61 60 59 59 58 57 55 53 51 49 46 45 44 43 43 42
55 56 57 58 59 60 61 62 62 63 64 65 65 65 65 65 64 64 63 62 60 58 59 59 57 56 53 51 49 47 45 43 41 40 40 39 37 36
56 57 58 59 59 60 62 62 62 63 63 63 64 64 63 63 62 61 60 59 58 56 56 55 53 51 47 45 43 41 40 39 38 37 36 34 32 31
57 57 58 59 60 61 62 62 62 63 63 63 63 62 62 61 60 58 57 56 55 54 53 51 48 45 43 40 39 38 37 37 35 33 32 30 28 27
57 58 58 59 60 61 61 61 62 63 63 63 62 61 60 59 57 56 55 54 53 51 49 47 44 42 40 38 37 36 35 33 31 29 27 26 25 23
58 58 58 59 60 60 61 61 62 62 63 62 61 60 58 57 55 54 52 51 50 47 45 43 40 38 37 35 34 32 30 29 27 25 24 22 21 20
58 58 59 60 60 60 61 61 62 62 62 61 60 58 56 55 53 51 49 47 45 44 41 39 36 34 33 32 30 28 26 24 23 21 19 18 18 17
58 58 59 60 60 60 61 61 62 61 61 60 58 56 54 53 51 48 46 44 41 39 37 35 33 32 30 29 27 25 22 21 19 18 16 15 15 15
59 59 59 60 60 60 61 61 61 60 59 58 56 54 52 50 47 45 42 40 38 36 34 33 31 30 28 26 24 21 19 17 16 15 13 13 13 13
59 59 60 60 60 60 61 61 60 59 57 55 53 51 48 45 43 40 38 36 35 33 31 30 29 27 24 23 21 19 17 15 14 13 12 11 11 10
59 60 59 59 60 60 60 59 58 56 54 51 49 46 43 41 38 36 35 33 31 30 28 27 26 24 22 20 18 16 15 13 12 11 10 10 9 8
59 59 59 59 59 59 58 57 55 52 50 47 44 41 39 37 35 33 32 30 28 27 26 25 23 21 19 17 15 13 13 12 11 10 9 8 7 7
59 58 58 58 57 57 55 53 51 48 46 43 40 37 35 34 32 31 30 28 26 25 24 23 21 19 17 15 13 12 11 10 9 8 7 7 6 6
57 57 56 55 54 53 51 49 47 45 42 39 36 34 33 32 30 29 28 26 25 24 22 20 18 16 15 13 12 10 9 8 8 7 6 6 5 5

GEFSNE_500_meanwind_162.txt.gz
Wind_Speed
42 43 43 44 45 46 47 48 49 49 48 49 51 51 52 52 54 55 55 55 56 58 59 60 61 62 63 63 63 63 63 63 63 64 64 65 65 65
43 44 44 45 47 48 49 49 51 52 52 51 52 52 53 54 56 56 57 58 59 60 61 62 63 64 64 65 65 65 65 65 65 65 65 65 64 64
44 45 46 47 48 49 50 51 52 54 54 52 53 54 55 56 57 58 59 60 61 62 64 65 65 66 66 66 67 67 67 66 66 65 64 63 63 63
45 46 47 47 48 50 51 52 53 55 55 54 54 56 57 58 59 59 60 62 63 64 65 66 66 66 67 67 67 67 65 64 64 64 64 63 63 62
46 47 47 48 50 51 52 53 54 55 56 56 56 58 59 60 60 61 62 63 64 65 65 65 66 65 65 65 65 64 64 63 63 63 63 63 62 61
47 47 49 50 51 52 53 54 55 56 57 58 58 59 60 61 61 62 62 63 64 64 65 65 65 65 64 64 63 63 63 62 62 61 61 60 59 58
48 49 50 51 52 53 54 55 57 57 58 59 60 60 60 61 61 62 63 63 64 64 64 64 64 64 63 62 62 61 61 60 59 58 56 54 53 52
49 50 51 52 53 54 55 57 58 59 59 60 61 61 61 61 62 63 63 64 64 64 64 63 63 62 61 60 59 59 58 57 55 52 50 48 47 46
50 51 52 53 54 55 56 57 58 59 60 61 61 61 62 62 63 63 64 64 64 64 64 62 60 59 58 57 56 55 54 52 49 47 46 45 44 43
51 52 53 54 55 56 57 58 59 60 61 62 62 62 63 63 64 65 65 65 64 63 63 60 58 56 55 54 53 51 49 47 45 44 43 42 40 39
52 53 53 54 55 57 58 59 59 60 61 61 62 62 63 64 65 65 65 65 63 61 59 58 56 54 52 51 49 47 45 43 42 40 39 38 37 36
52 53 54 55 56 58 59 59 60 60 61 61 62 63 64 64 65 65 64 63 61 58 56 55 54 52 48 46 45 43 41 39 38 36 35 34 34 34
52 54 55 56 57 58 59 59 60 60 61 62 62 63 64 64 64 64 62 60 58 57 55 53 50 48 45 42 40 39 36 35 34 33 33 32 32 32
53 55 56 57 58 59 59 60 60 61 62 62 63 63 64 63 63 61 59 57 56 55 53 50 47 44 42 39 36 35 33 32 32 31 31 30 30 29
54 55 56 57 58 59 59 60 61 62 63 63 63 63 63 62 60 58 56 55 53 51 48 45 43 41 39 36 34 32 31 30 30 29 28 27 26 24
55 56 57 58 59 59 59 61 62 63 63 63 63 62 61 59 57 55 53 52 49 46 43 42 40 38 36 34 32 30 29 28 27 26 25 23 22 21
55 56 57 57 58 58 60 61 62 62 62 62 61 60 58 56 54 51 49 47 44 41 39 38 37 35 33 31 30 29 28 27 25 23 21 20 19 18
55 56 57 57 58 59 60 61 61 61 60 60 59 57 55 52 50 48 46 44 40 37 36 35 34 33 31 29 28 27 26 24 22 20 18 17 16 15
56 56 57 58 58 60 60 60 59 58 58 57 56 54 51 49 47 45 43 40 37 35 35 34 32 31 29 28 26 25 23 21 19 17 16 14 13 13
56 57 57 58 59 59 59 57 56 56 55 54 53 51 49 47 45 43 40 37 35 33 33 32 31 29 26 25 23 22 20 18 16 15 14 13 12 11
56 57 58 58 58 57 56 54 53 53 53 52 50 49 47 44 41 39 37 34 33 32 31 30 28 26 24 22 20 18 17 15 14 12 11 11 10 10
56 57 58 57 56 55 53 52 52 52 51 50 48 46 44 41 39 37 34 32 30 30 29 27 25 23 21 19 17 16 14 13 11 10 10 9 9 8
56 57 56 55 54 53 51 50 50 49 48 47 45 43 41 39 36 34 31 29 29 28 26 25 23 21 19 17 15 14 12 10 9 9 9 8 8 7

GEFSNE_500_meanwind_168.txt.gz
Wind_Speed
40 41 42 43 43 44 45 45 46 45 44 45 47 48 50 52 53 53 54 55 56 57 58 58 59 59 60 61 62 62 63 63 63 63 63 63 63 63
41 42 43 44 44 46 46 47 48 48 47 47 49 50 52 53 54 55 56 57 57 58 59 59 60 61 62 63 63 63 64 64 64 64 64 64 64 64
42 43 44 45 46 47 47 48 49 49 49 49 51 52 54 55 56 57 57 58 58 59 60 61 62 63 63 64 64 65 65 65 64 64 64 64 64 64
43 44 45 46 47 47 48 48 49 50 51 51 52 54 55 56 57 58 58 59 59 60 62 63 63 64 65 65 65 65 65 64 63 64 63 63 63 62
44 45 46 47 48 48 48 49 50 51 52 53 53 54 55 57 58 58 59 60 60 61 62 63 64 65 65 65 65 64 63 63 63 62 61 59 58 57
45 46 47 48 48 48 49 50 51 52 53 54 54 55 56 58 59 59 60 61 61 62 63 63 65 65 65 65 64 63 62 62 61 58 56 55 53 52
46 46 48 49 49 50 50 51 52 53 54 55 56 57 58 59 60 60 61 61 61 63 63 64 65 66 65 64 63 62 61 60 58 55 54 52 51 50
47 47 48 49 50 50 51 52 52 53 54 56 57 58 59 60 61 61 61 61 62 63 64 65 66 65 64 63 62 61 60 57 55 53 51 50 48 47
48 48 49 49 50 50 51 52 53 54 56 57 58 59 60 61 61 62 62 63 63 64 65 65 66 65 63 62 60 59 57 54 52 50 48 47 45 44
48 49 49 49 50 50 51 53 54 55 57 58 60 60 61 61 61 62 63 64 64 65 66 65 63 62 60 59 57 55 52 50 48 47 46 44 43 42
49 49 50 50 50 51 52 54 54 56 57 59 60 61 61 61 62 63 64 65 64 65 65 63 60 57 56 54 52 50 48 46 45 44 43 41 39 38
49 49 49 50 51 52 53 54 55 57 58 59 60 60 60 62 62 63 64 64 64 63 62 60 57 54 51 50 49 47 44 42 41 40 38 36 35 34
48 49 49 50 51 52 53 54 56 57 58 58 59 59 60 61 62 62 62 62 62 61 59 56 53 51 49 46 44 42 40 38 37 36 34 33 32 31
49 49 50 51 51 52 53 55 56 57 58 58 58 59 60 61 61 62 62 62 60 58 55 53 50 47 45 42 39 37 36 35 33 31 30 29 28 27
48 49 50 50 51 52 54 55 56 57 57 58 58 59 60 60 61 61 60 59 57 55 52 49 46 43 41 38 35 34 33 31 30 28 27 26 25 24
48 49 50 51 51 52 53 55 56 57 57 58 58 59 59 59 59 58 57 55 53 51 49 46 43 41 38 36 34 32 30 28 27 26 26 25 24 22
48 48 49 50 50 52 53 55 56 56 57 57 57 58 58 57 56 55 53 51 49 47 45 43 42 39 36 34 32 30 28 27 26 25 24 23 22 20
48 49 49 50 51 52 53 55 56 56 56 56 56 56 55 54 53 52 50 48 46 44 41 39 38 37 35 32 30 28 27 26 25 23 22 21 20 19
48 48 49 50 51 52 54 54 54 55 55 55 54 54 52 51 50 49 48 46 44 41 39 37 36 34 31 30 28 26 25 24 23 22 21 20 18 18
48 49 49 50 51 52 53 53 53 53 53 53 52 51 50 49 48 47 46 44 41 39 37 36 34 31 29 27 25 24 23 22 22 20 19 18 17 16
47 48 49 49 50 51 52 52 52 52 52 51 50 49 48 47 47 46 44 41 39 36 35 34 31 29 27 25 23 22 22 21 20 18 16 15 14 14
47 47 48 49 50 50 51 51 51 51 50 49 48 47 47 46 45 44 41 39 36 34 32 30 28 26 24 22 21 20 20 19 18 16 14 13 12 12
46 47 47 48 49 50 51 51 50 49 48 47 46 46 45 45 43 41 39 36 34 32 29 27 25 24 22 20 19 18 17 16 15 14 13 12 11 10